Weather History for Lakeview AWS, OR

Change the Weather History Date:

Wednesday, March 26, 2014

  Actual Average Record
Temperature  
Mean Temperature 39 °F -  
Max Temperature 46 °F 51 °F 69 °F (1988)
Min Temperature 32 °F 27 °F 8 °F (1985)
Degree Days  
Heating Degree Days 26    
Moisture  
Dew Point 32 °F    
Average Humidity 80    
Maximum Humidity 93    
Minimum Humidity 50    
Precipitation  
Precipitation 0.06 in - - ()
Sea Level Pressure  
Sea Level Pressure 29.66 in    
Wind  
Wind Speed 12 mph (South)    
Max Wind Speed 25 mph    
Max Gust Speed 34 mph    
Visibility 9 miles    
Events      
Averages and records for this station are not official NWS values.
T = Trace of Precipitation, MM = Missing Value Source: NWS Daily Summary

Daily Weather History Graph

Daily Weather History Graph

Search for Another Location

Airport:

Trip Planner

Search our weather history database for the weather conditions in past years. The results will help you decide how hot, cold, wet, or windy it might be!

Date:

Astronomy

Mar. 26, 2014 Rise Set
Actual Time 6:54 AM PDT 7:20 PM PDT
Civil Twilight 6:26 AM PDT 7:48 PM PDT
Nautical Twilight 5:53 AM PDT 8:21 PM PDT
Astronomical Twilight 5:19 AM PDT 8:55 PM PDT
Moon 4:11 AM PDT (3/26) 3:01 PM PDT (3/26)
Length of Visible Light 13h 22m
Length of Day
12h 26m
Waning Crescent, 21% of the Moon is Illuminated
Mar 26
Waning Crescent
Mar 30
New
Apr 7
First Quarter
Apr 15
Full
Apr 22
Last Quarter

Hourly Weather History & Observations

Time (PDT) Temp. Windchill Dew Point Humidity Pressure Visibility Wind Dir Wind Speed Gust Speed Precip Events Conditions
12:15 AM 33.8 °F 25.8 °F 30.2 °F 87% 29.72 in 10.0 mi South 10.4 mph - N/A   Overcast
12:35 AM 33.8 °F 25.8 °F 30.2 °F 87% 29.71 in 10.0 mi South 10.4 mph - N/A   Scattered Clouds
12:55 AM 33.8 °F 25.3 °F 32.0 °F 93% 29.71 in 10.0 mi South 11.5 mph - N/A   Mostly Cloudy
1:15 AM 33.8 °F 24.8 °F 32.0 °F 93% 29.70 in 10.0 mi South 12.7 mph - N/A   Overcast
1:35 AM 33.8 °F 24.8 °F 32.0 °F 93% 29.70 in 10.0 mi South 12.7 mph - N/A   Overcast
1:55 AM 33.8 °F 25.3 °F 30.2 °F 87% 29.69 in 7.0 mi South 11.5 mph - N/A   Mostly Cloudy
2:15 AM 33.8 °F 27.0 °F 32.0 °F 93% 29.69 in 9.0 mi South 8.1 mph - N/A   Overcast
2:35 AM 33.8 °F 25.3 °F 32.0 °F 93% 29.69 in 10.0 mi South 11.5 mph - N/A   Overcast
2:55 AM 33.8 °F 25.8 °F 30.2 °F 87% 29.68 in 10.0 mi South 10.4 mph - N/A   Overcast
3:15 AM 33.8 °F 26.4 °F 30.2 °F 87% 29.68 in 10.0 mi South 9.2 mph - N/A   Mostly Cloudy
3:35 AM 33.8 °F 27.0 °F 30.2 °F 87% 29.68 in 10.0 mi South 8.1 mph - N/A   Partly Cloudy
3:55 AM 33.8 °F 25.3 °F 30.2 °F 87% 29.67 in 10.0 mi South 11.5 mph - N/A   Mostly Cloudy
4:15 AM 33.8 °F 25.3 °F 30.2 °F 87% 29.67 in 10.0 mi South 11.5 mph - N/A   Scattered Clouds
4:35 AM 33.8 °F 25.3 °F 30.2 °F 87% 29.67 in 10.0 mi South 11.5 mph - N/A   Partly Cloudy
4:55 AM 33.8 °F 25.3 °F 30.2 °F 87% 29.67 in 10.0 mi South 11.5 mph - N/A   Mostly Cloudy
5:15 AM 33.8 °F 27.7 °F 30.2 °F 87% 29.67 in 10.0 mi SSE 6.9 mph - N/A   Overcast
5:35 AM 33.8 °F 28.6 °F 30.2 °F 87% 29.67 in 10.0 mi SE 5.8 mph - N/A   Overcast
5:55 AM 33.8 °F 26.4 °F 30.2 °F 87% 29.67 in 10.0 mi ESE 9.2 mph - N/A   Overcast
6:15 AM 33.8 °F 26.4 °F 30.2 °F 87% 29.66 in 10.0 mi SE 9.2 mph - N/A   Overcast
6:35 AM 33.8 °F 27.0 °F 30.2 °F 87% 29.66 in 10.0 mi SE 8.1 mph - N/A   Overcast
6:55 AM 32.0 °F 22.5 °F 30.2 °F 93% 29.66 in 10.0 mi SSE 12.7 mph 17.3 mph N/A   Overcast
7:15 AM 32.0 °F 22.5 °F 30.2 °F 93% 29.67 in 10.0 mi SE 12.7 mph - N/A   Overcast
7:35 AM 33.8 °F 24.8 °F 30.2 °F 87% 29.67 in 10.0 mi SSE 12.7 mph - N/A   Overcast
7:55 AM 33.8 °F 23.5 °F 30.2 °F 87% 29.67 in 9.0 mi South 16.1 mph 19.6 mph N/A   Overcast
8:15 AM 33.8 °F 24.8 °F 30.2 °F 87% 29.67 in 10.0 mi South 12.7 mph - N/A   Overcast
8:35 AM 33.8 °F 24.3 °F 30.2 °F 87% 29.67 in 10.0 mi South 13.8 mph - N/A   Overcast
8:55 AM 33.8 °F 24.3 °F 30.2 °F 87% 29.68 in 10.0 mi South 13.8 mph 19.6 mph N/A   Overcast
9:15 AM 33.8 °F 23.5 °F 32.0 °F 93% 29.68 in 10.0 mi South 16.1 mph 20.7 mph N/A   Overcast
9:35 AM 35.6 °F 25.9 °F 32.0 °F 87% 29.68 in 10.0 mi South 16.1 mph 21.9 mph N/A   Overcast
9:55 AM 35.6 °F 25.9 °F 33.8 °F 93% 29.68 in 10.0 mi SSE 16.1 mph 21.9 mph N/A   Overcast
10:15 AM 37.4 °F 27.8 °F 33.8 °F 87% 29.68 in 10.0 mi South 17.3 mph 23.0 mph N/A   Overcast
10:35 AM 37.4 °F 28.2 °F 32.0 °F 81% 29.68 in 10.0 mi South 16.1 mph 23.0 mph N/A   Overcast
10:55 AM 37.4 °F 28.5 °F 32.0 °F 81% 29.69 in 10.0 mi South 15.0 mph - N/A   Overcast
11:15 AM 37.4 °F 29.8 °F 32.0 °F 81% 29.69 in 10.0 mi SSW 11.5 mph 18.4 mph N/A   Overcast
11:35 AM 39.2 °F 31.2 °F 33.8 °F 81% 29.68 in 10.0 mi South 13.8 mph 18.4 mph N/A   Mostly Cloudy
11:55 AM 39.2 °F 32.0 °F 32.0 °F 75% 29.68 in 10.0 mi SSW 11.5 mph - N/A   Mostly Cloudy
12:15 PM 39.2 °F 29.8 °F 32.0 °F 75% 29.68 in 10.0 mi SSW 18.4 mph - N/A   Overcast
12:35 PM 42.8 °F 35.8 °F 33.8 °F 70% 29.67 in 10.0 mi SSW 13.8 mph 20.7 mph N/A   Overcast
12:55 PM 42.8 °F 34.5 °F 30.2 °F 61% 29.66 in 10.0 mi South 18.4 mph 26.5 mph N/A   Overcast
1:15 PM 42.8 °F 34.3 °F 33.8 °F 70% 29.66 in 10.0 mi South 19.6 mph 26.5 mph N/A   Overcast
1:35 PM 41.0 °F 31.9 °F 33.8 °F 76% 29.67 in 10.0 mi South 19.6 mph 23.0 mph N/A   Mostly Cloudy
1:55 PM 42.8 °F 34.8 °F 35.6 °F 76% 29.65 in 10.0 mi South 17.3 mph 24.2 mph N/A   Mostly Cloudy
2:15 PM 42.8 °F 34.3 °F 33.8 °F 70% 29.64 in 10.0 mi South 19.6 mph 24.2 mph N/A   Mostly Cloudy
2:35 PM 42.8 °F 34.5 °F 33.8 °F 70% 29.63 in 10.0 mi South 18.4 mph 25.3 mph N/A   Overcast
2:55 PM 44.6 °F 36.9 °F 33.8 °F 66% 29.62 in 10.0 mi SSE 18.4 mph 24.2 mph N/A   Mostly Cloudy
3:15 PM 42.8 °F 34.3 °F 39.2 °F 87% 29.62 in 8.0 mi South 19.6 mph 24.2 mph N/A   Mostly Cloudy
3:35 PM 42.8 °F 34.8 °F 35.6 °F 76% 29.62 in 10.0 mi South 17.3 mph 34.5 mph N/A   Mostly Cloudy
3:55 PM 44.6 °F 36.6 °F 32.0 °F 61% 29.61 in 10.0 mi South 19.6 mph 27.6 mph N/A   Mostly Cloudy
4:15 PM 44.6 °F 35.9 °F 32.0 °F 61% 29.60 in 10.0 mi SSW 23.0 mph 29.9 mph N/A   Mostly Cloudy
4:35 PM 46.4 °F 38.5 °F 30.2 °F 53% 29.60 in 10.0 mi SW 21.9 mph 28.8 mph N/A   Mostly Cloudy
4:55 PM 46.4 °F 38.7 °F 28.4 °F 50% 29.60 in 10.0 mi SW 20.7 mph 29.9 mph N/A   Mostly Cloudy
5:15 PM 46.4 °F 38.1 °F 28.4 °F 50% 29.59 in 10.0 mi SSW 24.2 mph 33.4 mph N/A   Mostly Cloudy
5:35 PM 46.4 °F 37.9 °F 28.4 °F 50% 29.60 in 10.0 mi SSW 25.3 mph 32.2 mph N/A   Mostly Cloudy
5:55 PM 44.6 °F 36.6 °F 28.4 °F 53% 29.60 in 10.0 mi SSW 19.6 mph 24.2 mph N/A   Mostly Cloudy
6:15 PM 42.8 °F 35.4 °F 28.4 °F 57% 29.61 in 10.0 mi SW 15.0 mph 23.0 mph N/A   Mostly Cloudy
6:35 PM 37.4 °F 28.5 °F 32.0 °F 81% 29.62 in 10.0 mi West 15.0 mph - N/A   Mostly Cloudy
6:55 PM 35.6 °F 27.1 °F 33.8 °F 93% 29.62 in 10.0 mi West 12.7 mph - N/A   Mostly Cloudy
7:15 PM 37.4 °F 29.8 °F 33.8 °F 87% 29.63 in 10.0 mi West 11.5 mph - N/A   Overcast
7:35 PM - - - N/A% 29.64 in 2.0 mi SW 10.4 mph - 0.03 in   Overcast
7:55 PM - - - N/A% 29.64 in 5.0 mi SSW 5.8 mph - 0.04 in   Overcast
8:15 PM - - - N/A% 29.65 in 10.0 mi SSE 4.6 mph - N/A   Overcast
8:35 PM - - - N/A% 29.65 in 1.8 mi SE 6.9 mph - N/A   Overcast
8:55 PM - - - N/A% 29.66 in 1.8 mi SSW 4.6 mph - 0.02 in   Overcast
9:15 PM - - - N/A% 29.68 in 5.0 mi SW 5.8 mph - N/A   Overcast
9:35 PM - - - N/A% 29.69 in 10.0 mi South 5.8 mph - N/A   Mostly Cloudy
9:55 PM - - - N/A% 29.69 in 10.0 mi SSE 6.9 mph - N/A   Overcast
10:15 PM - - - N/A% 29.70 in 10.0 mi SSE 6.9 mph - N/A   Mostly Cloudy
10:35 PM - - - N/A% 29.70 in 10.0 mi SSE 8.1 mph - N/A   Overcast
10:55 PM - - - N/A% 29.70 in 10.0 mi SE 4.6 mph - N/A   Overcast
11:15 PM - - - N/A% 29.71 in 10.0 mi South 8.1 mph - N/A   Overcast
11:35 PM - - - N/A% 29.71 in 10.0 mi South 8.1 mph - N/A   Overcast
11:55 PM - - - N/A% 29.71 in 10.0 mi South 10.4 mph - N/A   Mostly Cloudy